Select another period ( hide this area )

Eenheden Periode Custom range Directly to
Metrisch Engels Beide
Dagelijkse Wekelijkse Maandelijkse Jaarlijkse
use both date-selectors for a custom range
previous Dag
With this date

WeatherUnderground graphs for this period ( click here )


Dagelijkse Samenvatting Vrijdag 19 juli 2019
Tijd Temp. ( °C ) Dew pt. ( °C ) Wind ( km/h ) van Windvlaag ( km/h ) Luchtdruk ( hPa ) Humid.( % ) Rainrate ( cm )
Hoog27,4 20,2 2,7 ZO ( 23/82 ) 11,1 1009,8 99 0,30
Gemiddeld19,5 16,7 0,5 Kalm #73/170 3,8 1008,8 86 0,60
Laag15,3 11,8 -   0,0 1007,4 38 -
Dagelijkse Tabular details for Vrijdag 19 juli 2019
Tijd Temp. ( °C ) Dew pt. ( °C ) Wind ( km/h ) van Windvlaag ( km/h ) Luchtdruk ( hPa ) Humid.( % ) Rainrate ( cm )
00:04 19,0 17,5 0,8 ZO 6,1 1007,4 91 -
00:09 19,0 17,5 0,8 ZO 2,6 1007,5 91 -
00:14 18,9 17,4 0,3 Zuiden 5,0 1007,5 91 -
00:19 18,9 17,4 0,2 Zuiden 5,0 1007,5 91 -
00:24 18,9 17,4 0,2 ZO 3,5 1007,6 91 -
00:29 18,9 17,4 0,5 ZO 6,1 1007,7 91 -
00:34 18,9 17,4 0,3 OZO 6,1 1007,6 91 -
00:39 18,8 17,3 0,6 ZO 6,1 1007,8 91 -
00:44 18,7 17,2 0,5 ZO 6,1 1007,6 91 -
00:49 18,7 17,2   Kalm 3,5 1007,7 91 -
00:54 18,6 17,1   Kalm 3,5 1007,7 91 -
00:59 18,6 17,1 0,2 WZW 5,0 1007,6 91 -
01:04 18,5 17,0 0,8 ZO 5,0 1007,7 91 -
01:09 18,3 17,0 0,8 ZO 5,0 1007,7 92 -
01:14 18,2 16,9 0,3 OZO 5,0 1007,8 92 -
01:19 18,1 16,8 0,2 Oosten 5,0 1007,8 92 -
01:24 18,0 16,9   Kalm 3,5 1007,9 93 -
01:29 17,9 16,8   Kalm 3,5 1007,8 93 -
01:34 17,8 16,8   Kalm 2,6 1007,8 94 -
01:39 17,7 16,7   Kalm 2,6 1007,9 94 -
01:44 17,5 16,6   Kalm 1,1 1007,8 94 -
01:49 17,4 16,6   Kalm   1007,8 95 -
01:54 17,3 16,5   Kalm   1007,8 95 -
01:59 17,2 16,6   Kalm   1007,9 96 -
02:04 17,2 16,6   Kalm   1007,9 96 -
02:09 17,0 16,6   Kalm   1007,9 97 -
02:14 16,9 16,6   Kalm   1007,8 98 -
02:19 16,8 16,5   Kalm   1007,9 98 -
02:24 16,7 16,6   Kalm   1008,0 99 -
02:29 16,6 16,4   Kalm   1007,9 99 -
02:34 16,5 16,3   Kalm   1007,9 99 -
02:39 16,4 16,3   Kalm   1008,0 99 -
02:44 16,4 16,3   Kalm   1008,0 99 -
02:49 16,3 16,2   Kalm   1008,1 99 -
02:54 16,3 16,2   Kalm   1008,1 99 -
02:59 16,2 16,1   Kalm   1008,3 99 -
03:04 16,2 16,1   Kalm   1008,3 99 -
03:09 16,2 16,1   Kalm   1008,2 99 -
03:14 16,2 16,1   Kalm 2,6 1008,3 99 -
03:19 16,2 16,1   Kalm 2,6 1008,5 99 -
03:24 16,2 16,1   Kalm 1,1 1008,4 99 -
03:29 16,2 16,1   Kalm 1,1 1008,4 99 -
03:34 16,3 16,2   Kalm 2,6 1008,5 99 -
03:39 16,3 16,2   Kalm 2,6 1008,5 99 -
03:44 16,3 16,2   Kalm 1,1 1008,4 99 -
03:49 16,3 16,2   Kalm 1,1 1008,5 99 -
03:54 16,2 16,1   Kalm   1008,5 99 -
03:59 16,1 15,9   Kalm   1008,4 99 -
04:04 16,1 15,9   Kalm   1008,4 99 -
04:09 15,9 15,8   Kalm   1008,4 99 -
04:14 15,8 15,7   Kalm   1008,4 99 -
04:19 15,7 15,6   Kalm   1008,4 99 -
04:24 15,6 15,4   Kalm   1008,4 99 -
04:29 15,5 15,3   Kalm   1008,4 99 -
04:34 15,5 15,3   Kalm   1008,4 99 -
04:39 15,5 15,3   Kalm   1008,4 99 -
04:44 15,5 15,3   Kalm   1008,4 99 -
04:49 15,4 15,3   Kalm   1008,5 99 -
04:54 15,3 15,2   Kalm   1008,5 99 -
04:59 15,4 15,3   Kalm   1008,5 99 -
05:04 15,4 15,3   Kalm   1008,4 99 -
05:09 15,6 15,4   Kalm   1008,6 99 -
05:14 15,7 15,6   Kalm   1008,6 99 -
05:19 15,8 15,7   Kalm   1008,5 99 -
05:24 15,9 15,8   Kalm   1008,5 99 -
05:29 15,9 15,8   Kalm   1008,6 99 -
05:34 16,0 15,8   Kalm   1008,6 99 -
05:39 16,1 15,9   Kalm   1008,6 99 -
05:44 16,2 16,1   Kalm   1008,6 99 -
05:49 16,2 16,1   Kalm   1008,7 99 -
05:54 16,2 16,1   Kalm   1008,7 99 -
05:59 16,2 16,1   Kalm   1008,7 99 -
06:04 16,2 16,1   Kalm   1008,6 99 -
06:09 16,2 16,1   Kalm   1008,7 99 -
06:14 16,2 16,1   Kalm 1,1 1008,7 99 -
06:19 16,1 15,9   Kalm 1,1 1008,8 99 -
06:24 16,0 15,8   Kalm   1008,8 99 -
06:29 16,1 15,9   Kalm 3,5 1008,9 99 -
06:34 16,1 15,9   Kalm 3,5 1008,7 99 -
06:39 16,2 16,1   Kalm 1,1 1008,9 99 -
06:44 16,3 16,2 0,2 ZW 3,5 1008,7 99 -
06:49 16,4 16,3 0,2 ZW 3,5 1008,8 99 -
06:54 16,4 16,3   Kalm 1,1 1008,9 99 -
06:59 16,5 16,3 0,2 Oosten 3,5 1008,9 99 -
07:04 16,5 16,3 0,2 Oosten 3,5 1008,9 99 -
07:09 16,7 16,6   Kalm 1,1 1008,9 99 -
07:14 16,8 16,7   Kalm 2,6 1009,0 99 0,30
07:19 16,8 16,7   Kalm 2,6 1008,9 99 0,30
07:24 16,9 16,8 0,2 ZO 2,6 1008,8 99 0,30
07:29 17,1 16,9 0,2 ZZW 2,6 1008,7 99 0,30
07:34 17,2 17,1   Kalm 3,5 1008,9 99 0,30
07:39 17,4 17,3   Kalm 3,5 1008,9 99 0,30
07:44 17,7 17,6   Kalm 3,5 1009,1 99 0,30
07:49 17,9 17,8 0,2 Zuiden 3,5 1009,1 99 0,30
07:54 17,9 17,8 0,3 ZO 5,0 1009,0 99 0,30
07:59 17,9 17,8 0,5 OZO 5,0 1009,1 99 0,30
08:04 17,9 17,8 0,3 ZO 3,5 1009,2 99 0,30
08:09 18,2 18,1 0,2 ZO 3,5 1009,1 99 0,30
08:14 18,3 18,2 0,5 ZO 3,5 1009,1 99 -
08:19 18,4 18,3 0,5 ZO 3,5 1009,1 99 -
08:24 18,6 18,4 0,2 ZO 5,0 1009,4 99 -
08:29 18,7 18,6 0,5 ZZW 6,1 1009,4 99 -
08:34 18,7 18,6 0,6 ZW 6,1 1009,6 99 -
08:39 18,8 18,7 0,6 Zuiden 6,1 1009,5 99 -
08:44 19,0 18,8 0,5 ZZO 5,0 1009,5 99 -
08:49 19,1 18,9 0,5 ZZO 3,5 1009,4 99 -
08:54 19,3 19,2 0,8 ZO 5,0 1009,4 99 -
08:59 19,7 19,6 1,0 ZZO 7,2 1009,4 99 -
09:04 19,8 19,7 1,8 OZO 7,2 1009,4 99 -
09:09 20,3 20,2 2,1 Oosten 6,1 1009,3 99 -
09:14 20,6 20,1 1,4 ZZW 6,1 1009,3 97 -
09:19 20,6 19,9 0,6 ZZW 5,0 1009,4 96 -
09:24 20,5 19,3 0,6 ZZO 6,1 1009,5 93 -
09:29 20,7 19,6 1,0 ZZO 6,1 1009,5 93 -
09:34 20,8 19,3 1,0 ZO 6,1 1009,6 91 -
09:39 20,8 19,1 1,0 ZO 5,0 1009,6 90 -
09:44 21,1 19,2 1,0 ZZO 8,7 1009,5 89 -
09:49 21,5 19,1 0,8 ZO 8,7 1009,6 86 -
09:54 21,8 19,4 0,3 ZW 5,0 1009,6 86 -
09:59 22,9 19,3 0,3 WZW 3,5 1009,5 80 -
10:04 23,1 19,5 0,2 WZW 3,5 1009,4 80 -
10:09 23,4 18,3 0,3 ZW 7,2 1009,6 73 -
10:14 23,6 18,3 0,6 ZZW 7,2 1009,5 72 -
10:19 23,9 18,3 0,6 Zuiden 5,0 1009,5 71 -
10:24 23,6 17,4 1,0 ZO 7,2 1009,6 68 -
10:29 23,1 16,9 1,1 Zuiden 7,2 1009,8 68 -
10:34 22,6 16,7 1,1 ZZO 7,2 1009,6 69 -
10:39 22,3 16,6 1,3 ZZO 7,2 1009,4 70 -
10:44 22,9 17,6 0,8 ZZO 7,2 1009,4 72 -
10:49 23,6 17,8 0,5 ZZO 6,1 1009,6 70 -
10:54 23,8 17,8 0,6 ZW 5,0 1009,7 69 -
10:59 23,6 16,9 1,1 ZW 6,1 1009,5 66 -
11:04 23,5 16,8 2,4 OZO 6,1 1009,6 66 -
11:09 23,0 16,8 2,7 OZO 6,1 1009,5 68 -
11:14 23,1 17,1 1,6 ZZO 6,1 1009,6 69 -
11:19 23,1 16,4 1,4 ZO 7,2 1009,5 66 -
11:24 23,1 16,9 1,0 OZO 7,2 1009,4 68 -
11:29 23,2 16,5 1,0 ZO 7,2 1009,4 66 -
11:34 23,6 16,7 1,8 ZO 7,2 1009,3 65 -
11:39 23,8 16,8 1,6 Zuiden 7,2 1009,3 65 -
11:44 24,3 17,1 1,0 ZZW 6,1 1009,4 64 -
11:49 24,6 16,8 1,0 ZZO 7,2 1009,2 62 -
11:54 24,7 16,7 1,3 OZO 7,2 1009,2 61 -
11:59 24,7 16,7 1,1 ZO 7,2 1009,3 61 -
12:04 24,7 16,9 0,3 OZO 3,5 1009,4 62 -
12:09 24,4 16,2 0,5 Oosten 6,1 1009,4 60 -
12:14 24,6 16,3 0,8 OZO 6,1 1009,3 60 -
12:19 24,7 16,4 1,0 ONO 9,7 1009,4 60 -
12:24 25,3 17,0 1,0 ZO 9,7 1009,4 60 -
12:29 25,4 16,6 1,0 ZZO 6,1 1009,4 58 -
12:34 25,2 15,8 1,4 OZO 8,7 1009,4 56 -
12:39 25,1 16,0 1,0 ONO 8,7 1009,2 57 -
12:44 25,1 16,0 0,8 WZW 8,7 1009,2 57 -
12:49 25,0 15,6 1,1 ZW 7,2 1009,2 56 -
12:54 24,9 15,8 1,4 ZZO 7,2 1009,3 57 -
12:59 25,2 15,8 1,3 Zuiden 6,1 1009,4 56 -
13:04 25,2 15,8 0,3 Westen 3,5 1009,2 56 -
13:09 25,0 15,3 0,2 NW 11,1 1009,3 55 -
13:14 24,9 15,3 1,8 OZO 11,1 1009,2 55 -
13:19 24,9 15,3 2,1 OZO 11,1 1009,3 55 -
13:24 25,6 15,3 0,5 NW 6,1 1009,4 53 -
13:29 26,1 14,9 1,3 ZO 8,7 1009,3 50 -
13:34 26,0 14,2 1,4 ZO 8,7 1009,2 48 -
13:39 25,8 13,3 1,4 Oosten 7,2 1009,1 46 -
13:44 25,6 13,4 1,6 Oosten 7,2 1009,3 47 -
13:49 25,7 13,2 1,4 ZO 7,2 1009,3 46 -
13:54 26,4 12,8 1,3 OZO 7,2 1009,3 43 -
13:59 27,4 11,8 1,1 ZO 7,2 1009,2 38 -
14:04 27,4 11,8 1,1 ZW 6,1 1009,3 38 -
14:09 27,4 11,8 1,0 WZW 6,1 1009,2 38 -
Dagelijkse Samenvatting Vrijdag 19 juli 2019
Tijd Temp. ( °C ) Dew pt. ( °C ) Wind ( km/h ) van Windvlaag ( km/h ) Luchtdruk ( hPa ) Humid.( % ) Rainrate ( cm )
Hoog27,4 20,2 2,7 ZO ( 23/82 ) 11,1 1009,8 99 0,30
Gemiddeld19,5 16,7 0,5 Kalm #73/170 3,8 1008,8 86 0,60
Laag15,3 11,8 -   0,0 1007,4 38 -
Dagelijkse Tabular details for Vrijdag 19 juli 2019
Tijd Temp. ( °C ) Dew pt. ( °C ) Wind ( km/h ) van Windvlaag ( km/h ) Luchtdruk ( hPa ) Humid.( % ) Rainrate ( cm )
00:04 19,0 17,5 0,8 ZO 6,1 1007,4 91 -
00:09 19,0 17,5 0,8 ZO 2,6 1007,5 91 -
00:14 18,9 17,4 0,3 Zuiden 5,0 1007,5 91 -
00:19 18,9 17,4 0,2 Zuiden 5,0 1007,5 91 -
00:24 18,9 17,4 0,2 ZO 3,5 1007,6 91 -
00:29 18,9 17,4 0,5 ZO 6,1 1007,7 91 -
00:34 18,9 17,4 0,3 OZO 6,1 1007,6 91 -
00:39 18,8 17,3 0,6 ZO 6,1 1007,8 91 -
00:44 18,7 17,2 0,5 ZO 6,1 1007,6 91 -
00:49 18,7 17,2   Kalm 3,5 1007,7 91 -
00:54 18,6 17,1   Kalm 3,5 1007,7 91 -
00:59 18,6 17,1 0,2 WZW 5,0 1007,6 91 -
01:04 18,5 17,0 0,8 ZO 5,0 1007,7 91 -
01:09 18,3 17,0 0,8 ZO 5,0 1007,7 92 -
01:14 18,2 16,9 0,3 OZO 5,0 1007,8 92 -
01:19 18,1 16,8 0,2 Oosten 5,0 1007,8 92 -
01:24 18,0 16,9   Kalm 3,5 1007,9 93 -
01:29 17,9 16,8   Kalm 3,5 1007,8 93 -
01:34 17,8 16,8   Kalm 2,6 1007,8 94 -
01:39 17,7 16,7   Kalm 2,6 1007,9 94 -
01:44 17,5 16,6   Kalm 1,1 1007,8 94 -
01:49 17,4 16,6   Kalm   1007,8 95 -
01:54 17,3 16,5   Kalm   1007,8 95 -
01:59 17,2 16,6   Kalm   1007,9 96 -
02:04 17,2 16,6   Kalm   1007,9 96 -
02:09 17,0 16,6   Kalm   1007,9 97 -
02:14 16,9 16,6   Kalm   1007,8 98 -
02:19 16,8 16,5   Kalm   1007,9 98 -
02:24 16,7 16,6   Kalm   1008,0 99 -
02:29 16,6 16,4   Kalm   1007,9 99 -
02:34 16,5 16,3   Kalm   1007,9 99 -
02:39 16,4 16,3   Kalm   1008,0 99 -
02:44 16,4 16,3   Kalm   1008,0 99 -
02:49 16,3 16,2   Kalm   1008,1 99 -
02:54 16,3 16,2   Kalm   1008,1 99 -
02:59 16,2 16,1   Kalm   1008,3 99 -
03:04 16,2 16,1   Kalm   1008,3 99 -
03:09 16,2 16,1   Kalm   1008,2 99 -
03:14 16,2 16,1   Kalm 2,6 1008,3 99 -
03:19 16,2 16,1   Kalm 2,6 1008,5 99 -
03:24 16,2 16,1   Kalm 1,1 1008,4 99 -
03:29 16,2 16,1   Kalm 1,1 1008,4 99 -
03:34 16,3 16,2   Kalm 2,6 1008,5 99 -
03:39 16,3 16,2   Kalm 2,6 1008,5 99 -
03:44 16,3 16,2   Kalm 1,1 1008,4 99 -
03:49 16,3 16,2   Kalm 1,1 1008,5 99 -
03:54 16,2 16,1   Kalm   1008,5 99 -
03:59 16,1 15,9   Kalm   1008,4 99 -
04:04 16,1 15,9   Kalm   1008,4 99 -
04:09 15,9 15,8   Kalm   1008,4 99 -
04:14 15,8 15,7   Kalm   1008,4 99 -
04:19 15,7 15,6   Kalm   1008,4 99 -
04:24 15,6 15,4   Kalm   1008,4 99 -
04:29 15,5 15,3   Kalm   1008,4 99 -
04:34 15,5 15,3   Kalm   1008,4 99 -
04:39 15,5 15,3   Kalm   1008,4 99 -
04:44 15,5 15,3   Kalm   1008,4 99 -
04:49 15,4 15,3   Kalm   1008,5 99 -
04:54 15,3 15,2   Kalm   1008,5 99 -
04:59 15,4 15,3   Kalm   1008,5 99 -
05:04 15,4 15,3   Kalm   1008,4 99 -
05:09 15,6 15,4   Kalm   1008,6 99 -
05:14 15,7 15,6   Kalm   1008,6 99 -
05:19 15,8 15,7   Kalm   1008,5 99 -
05:24 15,9 15,8   Kalm   1008,5 99 -
05:29 15,9 15,8   Kalm   1008,6 99 -
05:34 16,0 15,8   Kalm   1008,6 99 -
05:39 16,1 15,9   Kalm   1008,6 99 -
05:44 16,2 16,1   Kalm   1008,6 99 -
05:49 16,2 16,1   Kalm   1008,7 99 -
05:54 16,2 16,1   Kalm   1008,7 99 -
05:59 16,2 16,1   Kalm   1008,7 99 -
06:04 16,2 16,1   Kalm   1008,6 99 -
06:09 16,2 16,1   Kalm   1008,7 99 -
06:14 16,2 16,1   Kalm 1,1 1008,7 99 -
06:19 16,1 15,9   Kalm 1,1 1008,8 99 -
06:24 16,0 15,8   Kalm   1008,8 99 -
06:29 16,1 15,9   Kalm 3,5 1008,9 99 -
06:34 16,1 15,9   Kalm 3,5 1008,7 99 -
06:39 16,2 16,1   Kalm 1,1 1008,9 99 -
06:44 16,3 16,2 0,2 ZW 3,5 1008,7 99 -
06:49 16,4 16,3 0,2 ZW 3,5 1008,8 99 -
06:54 16,4 16,3   Kalm 1,1 1008,9 99 -
06:59 16,5 16,3 0,2 Oosten 3,5 1008,9 99 -
07:04 16,5 16,3 0,2 Oosten 3,5 1008,9 99 -
07:09 16,7 16,6   Kalm 1,1 1008,9 99 -
07:14 16,8 16,7   Kalm 2,6 1009,0 99 0,30
07:19 16,8 16,7   Kalm 2,6 1008,9 99 0,30
07:24 16,9 16,8 0,2 ZO 2,6 1008,8 99 0,30
07:29 17,1 16,9 0,2 ZZW 2,6 1008,7 99 0,30
07:34 17,2 17,1   Kalm 3,5 1008,9 99 0,30
07:39 17,4 17,3   Kalm 3,5 1008,9 99 0,30
07:44 17,7 17,6   Kalm 3,5 1009,1 99 0,30
07:49 17,9 17,8 0,2 Zuiden 3,5 1009,1 99 0,30
07:54 17,9 17,8 0,3 ZO 5,0 1009,0 99 0,30
07:59 17,9 17,8 0,5 OZO 5,0 1009,1 99 0,30
08:04 17,9 17,8 0,3 ZO 3,5 1009,2 99 0,30
08:09 18,2 18,1 0,2 ZO 3,5 1009,1 99 0,30
08:14 18,3 18,2 0,5 ZO 3,5 1009,1 99 -
08:19 18,4 18,3 0,5 ZO 3,5 1009,1 99 -
08:24 18,6 18,4 0,2 ZO 5,0 1009,4 99 -
08:29 18,7 18,6 0,5 ZZW 6,1 1009,4 99 -
08:34 18,7 18,6 0,6 ZW 6,1 1009,6 99 -
08:39 18,8 18,7 0,6 Zuiden 6,1 1009,5 99 -
08:44 19,0 18,8 0,5 ZZO 5,0 1009,5 99 -
08:49 19,1 18,9 0,5 ZZO 3,5 1009,4 99 -
08:54 19,3 19,2 0,8 ZO 5,0 1009,4 99 -
08:59 19,7 19,6 1,0 ZZO 7,2 1009,4 99 -
09:04 19,8 19,7 1,8 OZO 7,2 1009,4 99 -
09:09 20,3 20,2 2,1 Oosten 6,1 1009,3 99 -
09:14 20,6 20,1 1,4 ZZW 6,1 1009,3 97 -
09:19 20,6 19,9 0,6 ZZW 5,0 1009,4 96 -
09:24 20,5 19,3 0,6 ZZO 6,1 1009,5 93 -
09:29 20,7 19,6 1,0 ZZO 6,1 1009,5 93 -
09:34 20,8 19,3 1,0 ZO 6,1 1009,6 91 -
09:39 20,8 19,1 1,0 ZO 5,0 1009,6 90 -
09:44 21,1 19,2 1,0 ZZO 8,7 1009,5 89 -
09:49 21,5 19,1 0,8 ZO 8,7 1009,6 86 -
09:54 21,8 19,4 0,3 ZW 5,0 1009,6 86 -
09:59 22,9 19,3 0,3 WZW 3,5 1009,5 80 -
10:04 23,1 19,5 0,2 WZW 3,5 1009,4 80 -
10:09 23,4 18,3 0,3 ZW 7,2 1009,6 73 -
10:14 23,6 18,3 0,6 ZZW 7,2 1009,5 72 -
10:19 23,9 18,3 0,6 Zuiden 5,0 1009,5 71 -
10:24 23,6 17,4 1,0 ZO 7,2 1009,6 68 -
10:29 23,1 16,9 1,1 Zuiden 7,2 1009,8 68 -
10:34 22,6 16,7 1,1 ZZO 7,2 1009,6 69 -
10:39 22,3 16,6 1,3 ZZO 7,2 1009,4 70 -
10:44 22,9 17,6 0,8 ZZO 7,2 1009,4 72 -
10:49 23,6 17,8 0,5 ZZO 6,1 1009,6 70 -
10:54 23,8 17,8 0,6 ZW 5,0 1009,7 69 -
10:59 23,6 16,9 1,1 ZW 6,1 1009,5 66 -
11:04 23,5 16,8 2,4 OZO 6,1 1009,6 66 -
11:09 23,0 16,8 2,7 OZO 6,1 1009,5 68 -
11:14 23,1 17,1 1,6 ZZO 6,1 1009,6 69 -
11:19 23,1 16,4 1,4 ZO 7,2 1009,5 66 -
11:24 23,1 16,9 1,0 OZO 7,2 1009,4 68 -
11:29 23,2 16,5 1,0 ZO 7,2 1009,4 66 -
11:34 23,6 16,7 1,8 ZO 7,2 1009,3 65 -
11:39 23,8 16,8 1,6 Zuiden 7,2 1009,3 65 -
11:44 24,3 17,1 1,0 ZZW 6,1 1009,4 64 -
11:49 24,6 16,8 1,0 ZZO 7,2 1009,2 62 -
11:54 24,7 16,7 1,3 OZO 7,2 1009,2 61 -
11:59 24,7 16,7 1,1 ZO 7,2 1009,3 61 -
12:04 24,7 16,9 0,3 OZO 3,5 1009,4 62 -
12:09 24,4 16,2 0,5 Oosten 6,1 1009,4 60 -
12:14 24,6 16,3 0,8 OZO 6,1 1009,3 60 -
12:19 24,7 16,4 1,0 ONO 9,7 1009,4 60 -
12:24 25,3 17,0 1,0 ZO 9,7 1009,4 60 -
12:29 25,4 16,6 1,0 ZZO 6,1 1009,4 58 -
12:34 25,2 15,8 1,4 OZO 8,7 1009,4 56 -
12:39 25,1 16,0 1,0 ONO 8,7 1009,2 57 -
12:44 25,1 16,0 0,8 WZW 8,7 1009,2 57 -
12:49 25,0 15,6 1,1 ZW 7,2 1009,2 56 -
12:54 24,9 15,8 1,4 ZZO 7,2 1009,3 57 -
12:59 25,2 15,8 1,3 Zuiden 6,1 1009,4 56 -
13:04 25,2 15,8 0,3 Westen 3,5 1009,2 56 -
13:09 25,0 15,3 0,2 NW 11,1 1009,3 55 -
13:14 24,9 15,3 1,8 OZO 11,1 1009,2 55 -
13:19 24,9 15,3 2,1 OZO 11,1 1009,3 55 -
13:24 25,6 15,3 0,5 NW 6,1 1009,4 53 -
13:29 26,1 14,9 1,3 ZO 8,7 1009,3 50 -
13:34 26,0 14,2 1,4 ZO 8,7 1009,2 48 -
13:39 25,8 13,3 1,4 Oosten 7,2 1009,1 46 -
13:44 25,6 13,4 1,6 Oosten 7,2 1009,3 47 -
13:49 25,7 13,2 1,4 ZO 7,2 1009,3 46 -
13:54 26,4 12,8 1,3 OZO 7,2 1009,3 43 -
13:59 27,4 11,8 1,1 ZO 7,2 1009,2 38 -
14:04 27,4 11,8 1,1 ZW 6,1 1009,3 38 -
14:09 27,4 11,8 1,0 WZW 6,1 1009,2 38 -

Download your copy of this data-set  here

Our weather-data as stored at Weather Underground. Script ontwikkeld door Jim McMurry. Aangepast voor de template door Leuven-Template.eu